Simultaneous Nadir Overpasses (SNOs) Predictions

Prediction of SNOs between GOES-17 and NOAA-19 Satellite Orbit:

Table of predicted SNOs for the next 14.0 days since TLE Epoch: 6/22/2024
Index Date Time (GOES-17) GOES-17 Lat,Lon NOAA-19 Lat,Lon Distance(km) Time Diff (sec)
1 06/22/2024 04:30:28 -0.00,-104.69 0.00,-108.10 378.90 80
2 06/23/2024 04:17:58 -0.00,-104.69 -0.06,-104.94 28.28 80
3 06/24/2024 04:03:00 -0.00,-104.69 0.63,-101.95 312.55 80
4 06/26/2024 16:22:28 -0.00,-104.71 0.45,-106.59 214.63 80
5 06/27/2024 16:10:11 -0.01,-104.71 -0.26,-103.60 126.51 80
6 06/28/2024 15:57:53 -0.01,-104.71 -0.96,-100.62 467.70 80
7 06/30/2024 04:32:16 0.00,-104.69 -0.81,-108.23 403.83 80
8 07/01/2024 04:19:59 0.01,-104.69 -0.11,-105.24 62.72 80
9 07/02/2024 04:05:01 0.01,-104.69 0.55,-102.24 278.37 80
10 07/04/2024 16:27:08 -0.01,-104.70 0.47,-106.89 248.48 80
11 07/05/2024 16:12:10 -0.01,-104.70 -0.20,-103.89 92.61 80
